Grayling, MI

4:51 PM EDT on April 27, 2017 (GMT -0400)
Grayling

Weather History for KGOV - July, 2013

Change the Weather History Date:

Saturday, July 6, 2013

  Actual Average (KHTL) Record (KHTL)
Temperature  
Mean Temperature 70 °F -  
Max Temperature 88 °F 78 °F 103 °F (1921)
Min Temperature 53 °F 53 °F 33 °F (1965)
Cooling Degree Days 6    
Growing Degree Days 20 (Base 50)    
Moisture  
Dew Point 59 °F    
Average Humidity 68    
Maximum Humidity 100    
Minimum Humidity 35    
Precipitation  
Precipitation 0.00 in - - ()
Sea Level Pressure  
Sea Level Pressure 30.06 in    
Wind  
Wind Speed 2 mph (SSW)    
Max Wind Speed 12 mph    
Max Gust Speed 17 mph    
Visibility 9 miles    
Events      
Averages and records for this station are not official NWS values.
T = Trace of Precipitation, MM = Missing Value Source: NWS Daily Summary

Daily Weather History Graph

Daily Weather History Graph

Search for Another Location

Airport or City:

Trip Planner

Search our weather history database for the weather conditions in past years. The results will help you decide how hot, cold, wet, or windy it might be!

Date:

Astronomy

Jul. 06, 2013 Rise Set
Actual Time 6:00 AM EDT 9:26 PM EDT
Civil Twilight 5:24 AM EDT 10:02 PM EDT
Nautical Twilight 4:36 AM EDT 10:50 PM EDT
Astronomical Twilight 3:35 AM EDT 11:51 PM EDT
Moon 4:48 AM EDT (7/6) 8:04 PM EDT (7/6)
Length of Visible Light 16h 38m
Length of Day
15h 25m
Waning Crescent, 2% of the Moon is Illuminated
Jul 6
Waning Crescent
Jul 8
New
Jul 15
First Quarter
Jul 22
Full
Jul 29
Last Quarter

Hourly Weather History & Observations

Time (EDT) Temp. Heat Index Dew Point Humidity Pressure Visibility Wind Dir Wind Speed Gust Speed Precip Events Conditions
12:14 AM 61.2 °F - 61.0 °F 99% 30.08 in 3.0 mi Calm Calm - N/A   Clear
12:35 AM 60.3 °F - 60.1 °F 99% 30.08 in 5.0 mi Calm Calm - N/A   Clear
12:55 AM 60.3 °F - 60.3 °F 100% 30.08 in 5.0 mi Calm Calm - N/A   Clear
1:15 AM 58.5 °F - 58.5 °F 100% 30.08 in 4.0 mi Calm Calm - N/A   Clear
1:35 AM 58.8 °F - 58.8 °F 100% 30.08 in 7.0 mi Calm Calm - N/A   Clear
1:54 AM 57.2 °F - 56.7 °F 98% 30.08 in 7.0 mi Calm Calm - N/A   Clear
2:15 AM 56.1 °F - 56.1 °F 100% 30.08 in 7.0 mi Calm Calm - N/A   Clear
2:35 AM 55.9 °F - 55.4 °F 98% 30.08 in 7.0 mi Calm Calm - N/A   Clear
2:54 AM 55.9 °F - 55.9 °F 100% 30.08 in 5.0 mi Calm Calm - N/A   Clear
3:15 AM 55.2 °F - 55.2 °F 100% 30.09 in 4.0 mi Calm Calm - N/A   Clear
3:35 AM 55.6 °F - 55.6 °F 100% 30.09 in 7.0 mi Calm Calm - N/A   Clear
3:54 AM 55.9 °F - 55.9 °F 100% 30.09 in 7.0 mi Calm Calm - N/A   Clear
4:15 AM 55.9 °F - 55.2 °F 97% 30.09 in 7.0 mi Calm Calm - N/A   Clear
4:35 AM 53.6 °F - 52.9 °F 97% 30.09 in 7.0 mi Calm Calm - N/A   Clear
4:55 AM 53.6 °F - 53.2 °F 99% 30.09 in 7.0 mi Calm Calm - N/A   Clear
5:15 AM 54.3 °F - 54.1 °F 99% 30.09 in 7.0 mi Calm Calm - N/A   Clear
5:35 AM 53.6 °F - 52.9 °F 97% 30.09 in 7.0 mi Calm Calm - N/A   Clear
5:54 AM 53.6 °F - 53.6 °F 100% 30.10 in 7.0 mi Calm Calm - N/A   Clear
6:15 AM 53.6 °F - 53.2 °F 99% 30.10 in 5.0 mi North 3.5 mph - N/A   Clear
6:35 AM 53.6 °F - 53.6 °F 100% 30.10 in 5.0 mi Calm Calm - N/A   Clear
6:54 AM 55.9 °F - 55.9 °F 100% 30.10 in 5.0 mi Calm Calm - N/A   Clear
7:15 AM 58.5 °F - 58.1 °F 99% 30.10 in 5.0 mi Calm Calm - N/A   Clear
7:35 AM 60.3 °F - 59.7 °F 98% 30.10 in 5.0 mi Calm Calm - N/A   Clear
7:54 AM 64.2 °F - 61.5 °F 91% 30.10 in 7.0 mi Calm Calm - N/A   Clear
8:15 AM 68.5 °F - 64.4 °F 87% 30.10 in 7.0 mi Calm Calm - N/A   Clear
8:35 AM 72.7 °F - 65.7 °F 79% 30.09 in 10.0 mi Calm Calm - N/A   Clear
8:54 AM 73.6 °F - 64.8 °F 74% 30.09 in 10.0 mi SSW 3.5 mph - N/A   Clear
9:15 AM 73.6 °F - 62.8 °F 69% 30.09 in 10.0 mi WSW 3.5 mph - N/A   Clear
9:35 AM 74.8 °F - 63.1 °F 67% 30.09 in 10.0 mi SW 3.5 mph - N/A   Clear
9:54 AM 76.1 °F - 63.1 °F 64% 30.09 in 10.0 mi SW 4.6 mph - N/A   Clear
10:15 AM 77.5 °F - 63.3 °F 61% 30.09 in 10.0 mi South 5.8 mph - N/A   Clear
10:35 AM 78.8 °F - 62.8 °F 58% 30.09 in 10.0 mi SW 3.5 mph - N/A   Clear
10:55 AM 79.5 °F - 61.3 °F 54% 30.09 in 10.0 mi SW 6.9 mph - N/A   Clear
11:15 AM 79.9 °F - 60.1 °F 51% 30.09 in 10.0 mi SSW 9.2 mph - N/A   Clear
11:34 AM 81.1 °F 81.8 °F 60.1 °F 49% 30.08 in 10.0 mi South 8.1 mph - N/A   Clear
11:55 AM 81.5 °F 81.8 °F 59.5 °F 47% 30.08 in 10.0 mi SW 4.6 mph - N/A   Clear
12:15 PM 82.4 °F 82.6 °F 59.5 °F 46% 30.08 in 10.0 mi SSW 5.8 mph - N/A   Clear
12:34 PM 82.8 °F 82.8 °F 59.7 °F 45% 30.08 in 10.0 mi SW 4.6 mph - N/A   Scattered Clouds
12:55 PM 83.3 °F 83.2 °F 59.0 °F 44% 30.08 in 10.0 mi SSW 5.8 mph - N/A   Scattered Clouds
1:15 PM 84.9 °F 85.0 °F 60.8 °F 44% 30.08 in 10.0 mi South 11.5 mph - N/A   Clear
1:34 PM 83.1 °F 83.0 °F 59.4 °F 44% 30.07 in 10.0 mi South 5.8 mph - N/A   Clear
1:55 PM 85.6 °F 85.2 °F 59.5 °F 41% 30.07 in 10.0 mi SW 9.2 mph - N/A   Clear
2:15 PM 88.7 °F 88.0 °F 59.5 °F 37% 30.06 in 10.0 mi SW 4.6 mph - N/A   Clear
2:34 PM 88.5 °F 87.5 °F 58.1 °F 36% 30.05 in 10.0 mi SSW 5.8 mph - N/A   Clear
2:55 PM 86.5 °F 86.1 °F 59.4 °F 40% 30.05 in 10.0 mi South 10.4 mph - N/A   Clear
3:15 PM 88.2 °F 87.3 °F 59.0 °F 37% 30.04 in 10.0 mi SSW 9.2 mph 16.1 mph N/A   Clear
3:34 PM 88.7 °F 88.3 °F 59.9 °F 38% 30.04 in 10.0 mi SSW 11.5 mph 17.3 mph N/A   Clear
3:55 PM 88.7 °F 87.8 °F 58.5 °F 36% 30.04 in 10.0 mi South 10.4 mph - N/A   Clear
4:15 PM 88.7 °F 88.0 °F 59.0 °F 37% 30.04 in 10.0 mi WSW 11.5 mph - N/A   Clear
4:34 PM 88.7 °F 87.8 °F 58.8 °F 36% 30.03 in 10.0 mi SSW 9.2 mph - N/A   Clear
4:55 PM 88.7 °F 87.8 °F 58.5 °F 36% 30.03 in 10.0 mi South 3.5 mph - N/A   Clear
5:15 PM 88.5 °F 87.3 °F 57.9 °F 35% 30.02 in 10.0 mi SSW 8.1 mph - N/A   Clear
5:34 PM 88.7 °F 87.8 °F 58.5 °F 36% 30.02 in 10.0 mi WSW 8.1 mph - N/A   Clear
5:55 PM 86.4 °F 85.2 °F 57.2 °F 37% 30.02 in 10.0 mi SSW 8.1 mph - N/A   Clear
6:14 PM 86.2 °F 85.2 °F 57.7 °F 38% 30.01 in 10.0 mi SSW 5.8 mph - N/A   Clear
6:34 PM 86.2 °F 85.4 °F 58.6 °F 39% 30.01 in 10.0 mi SSW 8.1 mph - N/A   Clear
6:55 PM 84.9 °F 84.1 °F 57.6 °F 39% 30.00 in 10.0 mi SSW 4.6 mph - N/A   Clear
7:14 PM 83.3 °F 82.8 °F 57.0 °F 41% 30.00 in 10.0 mi South 8.1 mph - N/A   Clear
7:34 PM 82.8 °F 82.5 °F 58.1 °F 43% 30.00 in 10.0 mi South 5.8 mph - N/A   Clear
7:55 PM 81.9 °F 81.9 °F 58.8 °F 45% 30.00 in 10.0 mi SSW 3.5 mph - N/A   Clear
8:14 PM 81.1 °F 81.5 °F 59.2 °F 47% 30.00 in 10.0 mi SSW 3.5 mph - N/A   Clear
8:35 PM 79.9 °F - 59.5 °F 50% 30.00 in 10.0 mi SSW 3.5 mph - N/A   Clear
8:55 PM 78.8 °F - 60.1 °F 53% 30.00 in 10.0 mi SSW 3.5 mph - N/A   Clear
9:14 PM 77.9 °F - 60.8 °F 56% 30.00 in 10.0 mi Calm Calm - N/A   Clear
9:35 PM 73.6 °F - 62.4 °F 68% 30.01 in 10.0 mi Calm Calm - N/A   Clear
9:55 PM 73.6 °F - 61.0 °F 65% 30.02 in 10.0 mi West 3.5 mph - N/A   Scattered Clouds
10:14 PM 71.1 °F - 62.6 °F 75% 30.03 in 10.0 mi Calm Calm - N/A   Clear
10:35 PM 70.5 °F - 63.7 °F 79% 30.03 in 10.0 mi Calm Calm - N/A   Clear
10:55 PM 68.5 °F - 64.0 °F 85% 30.03 in 10.0 mi Calm Calm - N/A   Clear
11:14 PM 68.5 °F - 63.1 °F 83% 30.03 in 10.0 mi NW 4.6 mph - N/A   Clear
11:35 PM 68.5 °F - 62.8 °F 82% 30.04 in 10.0 mi Calm Calm - N/A   Clear
11:55 PM 68.5 °F - 63.0 °F 82% 30.04 in 10.0 mi Calm Calm - N/A   Clear